Location: Most
(50.5133°N, 13.6207°E)
Time: 09:25:15
(UTC+01:00)

Oscar 11 - Pass Details

Date: 30 November 2022
Orbit: 611 x 621 km, 97.6° (Epoch: 28 January)

Event Time Altitude Azimuth Distance (km) Brightness Sun altitude
Rises 04:51:24 0° 14° (NNE) 2,893 10.6 -26.4°
Reaches altitude 10° 04:53:36 10° 15° (NNE) 1,982 9.8 -26.0°
Enters shadow 04:57:07 58° 29° (NNE) 719 7.4 -25.5°
